When you browse on this site, cookies collect data to enhance your experience and personalize the content and advertising you see.
Visit our Privacy Policy to learn more. By continuing to use the site, you agree to this use of cookies and data.
  • In Hungary
  • List of Countries
  • For 7 days
  • Water Temperature
  • Satellite Maps
  • Weather Map
  • News
  • Weather Widgets
  • user-avatar
    Login

    Hourly Weather Barnsley

    Today, 24 February, Sunday

    Time Temperature Precipitation Wind Pressure Humidity
    00:00 +10°C° 0 mm 1 mps 764 mmHg 89%
    01:00 +10°C° 0 mm 1 mps 764 mmHg 89%
    02:00 +9°C° 0 mm 0 mps 765 mmHg 90%
    03:00 +8°C° 0 mm 0 mps 765 mmHg 90%
    04:00 +8°C° 0 mm 0 mps 765 mmHg 91%
    05:00 +8°C° 0 mm 0 mps 765 mmHg 92%
    06:00 +7°C° 0 mm 0 mps 765 mmHg 93%
    07:00 +8°C° 0 mm 0 mps 765 mmHg 91%
    08:00 +10°C° 0 mm 1 mps 765 mmHg 90%
    09:00 +10°C° 0 mm 1 mps 765 mmHg 88%
    10:00 +11°C° 0 mm 1 mps 765 mmHg 83%
    11:00 +13°C° 0 mm 1 mps 765 mmHg 78%
    12:00 +14°C° 0 mm 2 mps 765 mmHg 74%
    13:00 +14°C° 0 mm 2 mps 765 mmHg 72%
    14:00 +15°C° 0 mm 2 mps 765 mmHg 70%
    15:00 +15°C° 0 mm 2 mps 765 mmHg 68%
    16:00 +14°C° 0 mm 2 mps 765 mmHg 72%
    17:00 +13°C° 0 mm 2 mps 765 mmHg 76%
    18:00 +12°C° 0 mm 2 mps 765 mmHg 81%
    19:00 +10°C° 0 mm 2 mps 765 mmHg 81%
    20:00 +10°C° 0 mm 2 mps 766 mmHg 81%
    21:00 +9°C° 0 mm 2 mps 766 mmHg 82%
    22:00 +9°C° 0 mm 2 mps 766 mmHg 81%
    23:00 +9°C° 0 mm 2 mps 766 mmHg 81%

    Tomorrow, 25 February, Monday

    Time Temperature Precipitation Wind Pressure Humidity
    00:00 +8°C° 0 mm 2 mps 766 mmHg 81%
    01:00 +8°C° 0 mm 2 mps 766 mmHg 82%
    02:00 +9°C° 0 mm 1 mps 766 mmHg 82%
    03:00 +8°C° 0 mm 1 mps 766 mmHg 83%
    04:00 +8°C° 0 mm 1 mps 766 mmHg 82%
    05:00 +8°C° 0 mm 1 mps 766 mmHg 80%
    06:00 +7°C° 0 mm 1 mps 766 mmHg 78%
    07:00 +7°C° 0 mm 2 mps 766 mmHg 71%
    08:00 +8°C° 0 mm 2 mps 766 mmHg 64%
    09:00 +8°C° 0 mm 2 mps 766 mmHg 57%
    10:00 +10°C° 0 mm 2 mps 766 mmHg 52%
    11:00 +12°C° 0 mm 2 mps 766 mmHg 47%
    12:00 +13°C° 0 mm 3 mps 766 mmHg 41%
    13:00 +13°C° 0 mm 3 mps 766 mmHg 43%
    14:00 +14°C° 0 mm 3 mps 765 mmHg 45%
    15:00 +14°C° 0 mm 3 mps 765 mmHg 46%
    16:00 +13°C° 0 mm 3 mps 765 mmHg 52%
    17:00 +12°C° 0 mm 3 mps 765 mmHg 57%
    18:00 +10°C° 0 mm 2 mps 765 mmHg 63%
    19:00 +10°C° 0 mm 2 mps 765 mmHg 65%
    20:00 +9°C° 0 mm 2 mps 764 mmHg 68%
    21:00 +9°C° 0 mm 2 mps 764 mmHg 70%
    22:00 +8°C° 0 mm 2 mps 764 mmHg 72%
    23:00 +8°C° 0 mm 2 mps 764 mmHg 73%

    Day after tomorrow, 26 February, Tuesday

    Time Temperature Precipitation Wind Pressure Humidity
    00:00 +8°C° 0 mm 2 mps 764 mmHg 75%
    01:00 +7°C° 0 mm 2 mps 764 mmHg 73%
    02:00 +7°C° 0 mm 2 mps 764 mmHg 71%
    03:00 +7°C° 0 mm 2 mps 764 mmHg 69%
    04:00 +7°C° 0 mm 2 mps 763 mmHg 67%
    05:00 +6°C° 0 mm 2 mps 763 mmHg 66%
    06:00 +6°C° 0 mm 2 mps 763 mmHg 65%
    07:00 +7°C° 0 mm 2 mps 763 mmHg 64%
    08:00 +8°C° 0 mm 2 mps 763 mmHg 64%
    09:00 +9°C° 0 mm 2 mps 763 mmHg 63%
    10:00 +10°C° 0 mm 2 mps 763 mmHg 59%
    11:00 +13°C° 0 mm 2 mps 763 mmHg 56%
    12:00 +15°C° 0 mm 2 mps 763 mmHg 52%
    13:00 +15°C° 0 mm 2 mps 763 mmHg 52%
    14:00 +16°C° 0 mm 2 mps 762 mmHg 51%
    15:00 +16°C° 0 mm 2 mps 762 mmHg 51%
    16:00 +15°C° 0 mm 2 mps 762 mmHg 58%
    17:00 +13°C° 0 mm 2 mps 761 mmHg 64%
    18:00 +12°C° 0 mm 2 mps 761 mmHg 71%
    19:00 +10°C° 0 mm 2 mps 761 mmHg 74%
    20:00 +10°C° 0 mm 2 mps 761 mmHg 78%
    21:00 +9°C° 0 mm 2 mps 761 mmHg 81%
    22:00 +9°C° 0 mm 2 mps 761 mmHg 82%
    23:00 +8°C° 0 mm 2 mps 760 mmHg 83%

    27 February, Wednesday

    Time Temperature Precipitation Wind Pressure Humidity
    00:00 +8°C° 0 mm 2 mps 760 mmHg 83%
    01:00 +8°C° 0 mm 1 mps 760 mmHg 84%
    02:00 +8°C° 0 mm 1 mps 759 mmHg 84%
    03:00 +8°C° 0 mm 1 mps 759 mmHg 85%
    04:00 +7°C° 0 mm 1 mps 758 mmHg 85%
    05:00 +7°C° 0 mm 1 mps 758 mmHg 86%
    06:00 +7°C° 0 mm 1 mps 758 mmHg 86%
    07:00 +8°C° 0 mm 1 mps 758 mmHg 84%
    08:00 +7°C° 0 mm 2 mps 757 mmHg 82%
    09:00 +8°C° 0 mm 2 mps 757 mmHg 80%
    10:00 +9°C° 0 mm 2 mps 757 mmHg 75%
    11:00 +12°C° 0 mm 2 mps 757 mmHg 70%
    12:00 +12°C° 0 mm 3 mps 757 mmHg 66%
    13:00 +13°C° 0 mm 3 mps 757 mmHg 64%
    14:00 +13°C° 0 mm 3 mps 756 mmHg 62%
    15:00 +14°C° 0 mm 3 mps 756 mmHg 60%
    16:00 +13°C° 0 mm 3 mps 756 mmHg 65%
    17:00 +12°C° 0 mm 2 mps 756 mmHg 70%
    18:00 +10°C° 0 mm 2 mps 756 mmHg 75%
    19:00 +10°C° 0 mm 2 mps 756 mmHg 77%
    20:00 +10°C° 0 mm 1 mps 756 mmHg 78%
    21:00 +9°C° 0 mm 1 mps 756 mmHg 80%
    22:00 +9°C° 0 mm 1 mps 756 mmHg 81%
    23:00 +9°C° 0 mm 1 mps 756 mmHg 82%

    28 February, Thursday

    Time Temperature Precipitation Wind Pressure Humidity
    00:00 +9°C° 0 mm 1 mps 756 mmHg 83%
    01:00 +7°C° 0 mm 2 mps 756 mmHg 83%
    02:00 +7°C° 0 mm 2 mps 756 mmHg 84%
    03:00 +7°C° 0 mm 2 mps 756 mmHg 85%
    04:00 +7°C° 0 mm 2 mps 756 mmHg 86%
    05:00 +7°C° 0 mm 2 mps 756 mmHg 88%
    06:00 +7°C° 0 mm 2 mps 756 mmHg 90%
    07:00 +7°C° 0 mm 2 mps 756 mmHg 89%
    08:00 +8°C° 0 mm 2 mps 756 mmHg 87%
    09:00 +9°C° 0 mm 2 mps 757 mmHg 85%
    10:00 +10°C° 0 mm 2 mps 757 mmHg 82%
    11:00 +12°C° 0 mm 2 mps 757 mmHg 78%
    12:00 +13°C° 0 mm 2 mps 757 mmHg 74%
    13:00 +13°C° 0 mm 2 mps 757 mmHg 73%
    14:00 +14°C° 0 mm 2 mps 757 mmHg 72%
    15:00 +14°C° 0 mm 2 mps 757 mmHg 72%
    16:00 +13°C° 0 mm 2 mps 757 mmHg 76%
    17:00 +12°C° 0 mm 1 mps 757 mmHg 80%
    18:00 +11°C° 0 mm 1 mps 757 mmHg 84%
    19:00 +10°C° 0 mm 1 mps 758 mmHg 86%
    20:00 +10°C° 0 mm 1 mps 758 mmHg 87%
    21:00 +9°C° 0 mm 1 mps 758 mmHg 89%
    22:00 +9°C° 0 mm 1 mps 758 mmHg 90%
    23:00 +8°C° 0 mm 0 mps 758 mmHg 90%

    1 March, Friday

    Time Temperature Precipitation Wind Pressure Humidity
    00:00 +7°C° 0 mm 0 mps 758 mmHg 91%
    01:00 +7°C° 0 mm 0 mps 758 mmHg 92%
    02:00 +7°C° 0 mm 0 mps 758 mmHg 92%
    03:00 +6°C° 0 mm 0 mps 758 mmHg 93%
    04:00 +6°C° 0 mm 0 mps 758 mmHg 93%
    05:00 +6°C° 0 mm 0 mps 758 mmHg 94%
    06:00 +6°C° 0 mm 0 mps 758 mmHg 94%
    07:00 +6°C° 0 mm 0 mps 758 mmHg 92%
    08:00 +8°C° 0 mm 1 mps 758 mmHg 90%
    09:00 +9°C° 0 mm 1 mps 758 mmHg 88%
    10:00 +10°C° 0 mm 1 mps 758 mmHg 83%
    11:00 +10°C° 0 mm 2 mps 758 mmHg 78%
    12:00 +13°C° 0 mm 2 mps 758 mmHg 73%
    13:00 +13°C° 0 mm 2 mps 757 mmHg 72%
    14:00 +12°C° 0 mm 3 mps 757 mmHg 70%
    15:00 +13°C° 0 mm 3 mps 757 mmHg 69%
    16:00 +12°C° 0 mm 3 mps 756 mmHg 72%
    17:00 +12°C° 0 mm 3 mps 756 mmHg 75%
    18:00 +11°C° 0 mm 3 mps 756 mmHg 77%
    19:00 +11°C° 0 mm 3 mps 756 mmHg 80%
    20:00 +10°C° 0 mm 3 mps 756 mmHg 82%
    21:00 +10°C° 0 mm 3 mps 756 mmHg 84%
    22:00 +9°C° 0 mm 3 mps 755 mmHg 86%
    23:00 +9°C° 0 mm 3 mps 755 mmHg 87%
    Show more